OpenBCM V1.08-5-g2f4a (Linux)

Packet Radio Mailbox

IZ3LSV

[San Dona' di P. JN]

 Login: GUEST





  
I0OJJ  > KEPS     11.07.25 17:24l 343 Lines 16342 Bytes #21 (0) @ AMSAT
BID : ORB25191.1
Read: GUEST
Subj: 2Line Orbital Elements 25191.AMSAT
Path: IZ3LSV<ED1ZAC<GB7CIP<VK2RZ<IR0AAB<I0OJJ
Sent: 250710/0025z @:I0OJJ.ITA.EU [Rome] obcm1.08-10-g596e
From: I0OJJ @ I0OJJ.ITA.EU (Gustavo)
To:   KEPS @ AMSAT
X-Info: This message was generated automatically


QST de W1STR

AMSAT Orbital Elements for Amateur Satellites in TLE Format
From Orbital Analysis Office
New England Sci-Tech STEM Education Center
Natick, MA July 10, 2025
To all radio amateurs


These element sets describe the orbits of various satellites 
in use by the amateur radio community. For details see:
www.amsat.org/keplerian-elements-formats/

A daily update of element sets is available at:
www.amsat.org/tle/daily-bulletin.txt
or without bulletin text:
www.amsat.org/tle/dailytle.txt


AO-07
1 07530U 74089B   25190.89024115 -.00000033  00000-0  82038-4 0  9992
2 07530 101.9932 195.4770 0012615  65.2134   0.0763 12.53690040317862
UO-11
1 14781U 84021B   25190.89988547  .00000800  00000-0  89848-4 0  9990
2 14781  97.7560 156.6727 0006511 229.3091 130.7561 14.89456192227159
AO-27
1 22825U 93061C   25190.77742763  .00000062  00000-0  40653-4 0  9998
2 22825  98.7353 252.4814 0008906  31.7420 328.4298 14.30807515658304
FO-29
1 24278U 96046B   25190.69546656 -.00000022  00000-0  16638-4 0  9995
2 24278  98.5720  80.6217 0348845 264.5694  91.5566 13.53250157427094
NOAA-15
1 25338U 98030A   25190.82181517  .00000166  00000-0  85784-4 0  9990
2 25338  98.5338 215.2233 0008987 270.8142  89.2009 14.26994144412710
GO-32
1 25397U 98043D   25190.89870373  .00000024  00000-0  30259-4 0  9991
2 25397  98.9717 170.6529 0002288 106.7709 253.3720 14.24321127402824
ISS
1 25544U 98067A   25190.83556882  .00008089  00000-0  14719-3 0  9992
2 25544  51.6355 194.8070 0002240 357.9627  62.6688 15.50459844518671
NO-44
1 26931U 01043C   25190.89339210  .00000084  00000-0  62419-4 0  9999
2 26931  67.0510  49.4638 0006224 276.8432  83.1962 14.31746524241601
SO-50
1 27607U 02058C   25190.85810559  .00000887  00000-0  12776-3 0  9994
2 27607  64.5527 107.0682 0059637 327.4363  32.3068 14.81698316213921
CO-55
1 27844U 03031E   25190.89340438  .00000213  00000-0  11174-3 0  9991
2 27844  98.6756 198.7753 0010908  98.5391 261.7025 14.24015350142983
CO-57
1 27848U 03031J   25189.59065938  .00000201  00000-0  10782-3 0  9990
2 27848  98.6783 197.4733 0010631 117.3027 242.9235 14.23346835142494
RS-22
1 27939U 03042A   25190.85782747  .00000688  00000-0  11697-3 0  9993
2 27939  98.3301   1.0448 0010129 274.5497 222.1139 14.72409675165281
CO-58
1 28895U 05043F   25190.85472399  .00001043  00000-0  17783-3 0  9995
2 28895  98.2534 335.5904 0013957 206.3894 153.6603 14.71092032 51628
CO-65
1 32785U 08021C   25190.86574527  .00003608  00000-0  26077-3 0  9999
2 32785  97.7863 162.2597 0011222 107.8072 252.4379 15.04660771933703
CO-66
1 32791U 08021J   25190.87409165  .00007431  00000-0  35541-3 0  9996
2 32791  97.7283 171.6046 0005619  75.7915 284.3943 15.19284787935170
RS-30
1 32953U 08025A   25190.82304283  .00000036  00000-0  18840-3 0  9997
2 32953  82.5009 208.3702 0018785 343.6990  16.3484 12.43166129777296
NOAA-19
1 33591U 09005A   25190.85655587  .00000135  00000-0  95974-4 0  9998
2 33591  98.9962 255.7293 0012675 278.6650  81.3085 14.13387062846383
SRMSAT
1 37841U 11058D   25190.70662059  .00000358  00000-0  50747-4 0  9993
2 37841  19.9735 332.2412 0011848  36.4095 350.7204 14.11443289709593
ZACUBE-1
1 39417U 13066B   25190.86992063  .00002610  00000-0  22863-3 0  9993
2 39417  97.7802 147.7292 0042902 312.1416  47.6163 14.96888109629442
Delfi-N3xt
1 39428U 13066N   25190.74307778  .00002587  00000-0  26629-3 0  9992
2 39428  97.8339 108.0627 0082528 261.1665  98.0201 14.88702947623745
GOMX-1
1 39430U 13066Q   25190.82448271  .00001410  00000-0  22385-3 0  9997
2 39430  97.6808  47.6290 0133813  95.5512 266.0973 14.67737276619844
LO-74
1 39440U 13066AA  25190.83018322  .00002052  00000-0  21027-3 0  9994
2 39440  97.8503 135.1849 0063491  80.4854 280.3531 14.90095995627140
AO-73
1 39444U 13066AE  25190.78183830  .00004674  00000-0  34898-3 0  9991
2 39444  97.7814 152.8170 0040957 284.8166  74.8523 15.02667046628716
DTUSAT-2
1 40030U 14033W   25190.40748597  .00004906  00000-0  31816-3 0  9990
2 40030  98.0555 163.6772 0008105 328.3378  31.7361 15.08579200600892
EO-80
1 40032U 14033Y   25190.49246287  .00003549  00000-0  23101-3 0  9990
2 40032  98.0439 163.3801 0006849 256.7146 103.3317 15.08655193601406
LILACSAT-2
1 40908U 15049K   25190.77443541  .00007465  00000-0  19212-3 0  9992
2 40908  97.5042 211.8593 0010503  60.2237 300.0052 15.39493871542874
IO-86
1 40931U 15052B   25151.18580175  .00001241  00000-0  78118-4 0  9996
2 40931   6.0006  24.0987 0012733 338.8432  21.1169 14.78805930523047
Horyu-4
1 41340U 16012D   25190.53563712  .00014493  00000-0  37249-3 0  9990
2 41340  30.9970 290.3223 0006437  18.0988 341.9886 15.37963191517408
Lapan A3
1 41603U 16040E   25190.84811714  .00002130  00000-0  75631-4 0  9998
2 41603  97.1366 194.2709 0011790 152.7717 207.4145 15.30027268502417
CAS-2T
1 41847U 16066G   25190.48829201  .00001136  00000-0  16846-3 0  9993
2 41847  98.4194 264.6878 0347029  88.0687 276.0203 14.43572610455337
CAS-4B
1 42759U 17034B   25190.90689751  .00053583  00000-0  48511-3 0  9990
2 42759  43.0048 140.6272 0019547 146.5673 213.6432 15.67004248447359
CAS-4A
1 42761U 17034D   25190.91309853  .00062503  00000-0  52884-3 0  9996
2 42761  43.0085 137.3824 0020701 151.6800 208.5197 15.68570351447380
TechnoSat
1 42829U 17042E   25190.82719458  .00002142  00000-0  16809-3 0  9996
2 42829  97.3847 358.0851 0016645 172.7786 187.3682 15.01833923435265
AO-91
1 43017U 17073E   25190.58049415  .00006534  00000-0  33095-3 0  9997
2 43017  97.5220  60.5927 0172897  64.6628 297.2393 15.05153722413720
S-Net D
1 43186U 18014G   25190.61158695  .00003357  00000-0  19884-3 0  9995
2 43186  97.5603  93.2128 0010563 117.1286 243.1023 15.12051184406913
S-Net B
1 43187U 18014H   25190.28649140  .00003368  00000-0  19957-3 0  9992
2 43187  97.5609  92.8643 0011313 114.4141 245.8271 15.12028486406868
S-Net A
1 43188U 18014J   25190.81040539  .00003351  00000-0  19841-3 0  9993
2 43188  97.5615  93.5368 0011228 113.4723 246.7688 15.12057714406945
S-Net C
1 43189U 18014K   25190.68604354  .00003206  00000-0  19007-3 0  9993
2 43189  97.5632  93.4332 0012796 107.7857 252.4771 15.12026415405478
Ten-Koh
1 43677U 18084G   25190.46838664  .00001398  00000-0  11556-3 0  9992
2 43677  98.0844   3.9068 0008205 153.3062 206.8585 15.00682396364729
PO-101
1 43678U 18084H   25190.83981500  .00002076  00000-0  17914-3 0  9990
2 43678  98.1045   8.1204 0008697 172.9895 187.1450 14.98436860364911
QO-100
1 43700U 18090A   25190.34350530  .00000159  00000-0  00000-0 0  9997
2 43700   0.0158 344.0954 0002643 159.3145 293.5734  1.00273190 24239
MinXSS-2
1 43758U 18099A   25190.75366069  .00009192  00000-0  35422-3 0  9993
2 43758  97.5010 256.8995 0012462  56.3683 303.8742 15.26491648361576
AO-95
1 43770U 18099N   25190.65224841  .00005823  00000-0  29192-3 0  9991
2 43770  97.4903 248.4106 0012156 107.5377 252.7186 15.17667872361118
RANGE-A
1 43773U 18099R   25190.63546082  .00002362  00000-0  15179-3 0  9991
2 43773  97.4460 238.1664 0012927  90.1594 270.1116 15.09309651360753
MOVE-II
1 43780U 18099Y   25190.78179319  .01459671  14166-2  18148-2 0  9998
2 43780  97.4584 269.2811 0012458 255.8507 104.1391 16.07959642362595
SNUSat 2
1 43782U 18099AA  25190.39838557  .00004302  00000-0  23367-3 0  9999
2 43782  97.4584 244.6668 0013148  56.7555 303.4935 15.14969782361019
SnugLite
1 43784U 18099AC  25190.41214986  .00005902  00000-0  29341-3 0  9993
2 43784  97.4399 244.3019 0004777  68.3998 291.7744 15.18006206361160
ITASat 1
1 43786U 18099AE  25190.70202611  .00004374  00000-0  24904-3 0  9991
2 43786  97.4550 244.3847 0015863 102.3649 257.9359 15.13236460361012
EAGLET 1
1 43790U 18099AJ  25190.38725152  .00002171  00000-0  14000-3 0  9999
2 43790  97.4746 243.9343 0013642  88.6581 271.6211 15.09256146360561
ESEO
1 43792U 18099AL  25190.70037022  .00000443  00000-0  37473-4 0  9999
2 43792  97.4441 237.1002 0014177  62.2415 298.0246 15.02695342360345
CSIM
1 43793U 18099AM  25190.49131975  .00088084  00000-0  40369-3 0  9992
2 43793  97.4763 270.8662 0001952 149.9264 210.2118 15.83448720362364
JO-97
1 43803U 18099AX  25190.71314391  .00007253  00000-0  32620-3 0  9994
2 43803  97.4648 249.5280 0008208  50.9347 309.2618 15.21384993361356
Suomi 100
1 43804U 18099AY  25190.71101530  .00006370  00000-0  30830-3 0  9994
2 43804  97.4714 248.7347 0013088  49.5339 310.7034 15.18853952361275
ISAT
1 43879U 18111D   25190.50682603  .00012592  00000-0  42450-3 0  9997
2 43879  97.5943 105.5782 0010815  93.3568 266.8910 15.30818680358274
UWE-4
1 43880U 18111E   25190.50216882  .00009404  00000-0  36114-3 0  9999
2 43880  97.5888 103.8388 0013859 103.9277 256.3503 15.26586052358196
Sparrow
1 43881U 18111F   25190.33348282  .00013977  00000-0  45265-3 0  9998
2 43881  97.6089 108.3962 0008719 124.2090 235.9979 15.32108648358342
Prox-1
1 44339U 19036A   25190.41471998  .00005907  00000-0  72190-3 0  9995
2 44339  23.9953 225.7491 0007819  56.6475 303.4770 14.80429077322445
SONATE
1 44400U 19038Q   25185.47540524  .09032085  27445-5  31847-3 0  9995
2 44400  97.6609 216.4776 0012462 246.7970 113.2018 16.43248376333575
Taurus 1
1 44530U 19059C   25190.82611474  .00003297  00000-0  60932-3 0  9994
2 44530  98.6095 331.6647 0007916 303.1013  56.9428 14.66120011308376
Duchifat 3
1 44854U 19089C   25190.62239206  .00030379  00000-0  55014-3 0  9999
2 44854  36.9404 163.8532 0006033 220.8271 139.2035 15.48738183307602
TO-108
1 44881U 19093C   25190.86879193  .00000615  00000-0  76968-4 0  9997
2 44881  97.7918 265.8850 0014961 128.7490 231.5064 14.85650075300571
